Tracking 29606 objects as of 18-Sep-2024
HD Live streaming from Space Station
objects crossing your sky now

FENGYUN 1C DEB

Track FENGYUN 1C DEB now!
10-day predictions


NORAD ID: 30820
Int'l Code: 1999-025AVE
Perigee: 810.1 km
Apogee: 887.9 km
Inclination: 98.7 °
Period: 101.8 minutes
Semi major axis: 7220 km
RCS: 0.0172 m2 (small)
Launch date: May 10, 1999
Source: People's Republic of China (PRC)
Launch site: Taiyaun Space Center, China (TSC)

Note: This is SATELLITE DEBRIS
Your satellite tracking list
Your tracking list is empty




NASA's NSSDC Master Catalog

Two Line Element Set (TLE):
1 30820U 99025AVE 24256.79542845  .00041102  00000-0  20795-1 0  9993
2 30820  98.6788 356.8785 0053913  62.3977  90.4976 14.15127102899586
Source of the keplerian elements: AFSPC